Weather History for Albemarle, NC

Change the Weather History Date:

Wednesday, February 27, 2013

  Actual Average (KHBI) Record (KHBI)
Temperature  
Mean Temperature 46 °F -  
Max Temperature 57 °F 56 °F 78 °F (2011)
Min Temperature 35 °F 33 °F 8 °F (1963)
Degree Days  
Heating Degree Days 19    
Moisture  
Dew Point 39 °F    
Average Humidity 79    
Maximum Humidity 100    
Minimum Humidity 49    
Precipitation  
Precipitation 0.00 in - - ()
Sea Level Pressure  
Sea Level Pressure 29.77 in    
Wind  
Wind Speed 6 mph (SW)    
Max Wind Speed 15 mph    
Max Gust Speed 23 mph    
Visibility 10 miles    
Events Fog    
Averages and records for this station are not official NWS values.
T = Trace of Precipitation, MM = Missing Value Source: NWS Daily Summary

Daily Weather History Graph

Daily Weather History Graph

Search for Another Location

Airport:

Trip Planner

Search our weather history database for the weather conditions in past years. The results will help you decide how hot, cold, wet, or windy it might be!

Date:

Astronomy

Feb. 27, 2013 Rise Set
Actual Time 6:52 AM EST 6:14 PM EST
Civil Twilight 6:27 AM EST 6:40 PM EST
Nautical Twilight 5:57 AM EST 7:09 PM EST
Astronomical Twilight 5:28 AM EST 7:39 PM EST
Moon 8:26 PM EST (2/27) 7:32 AM EST (2/27)
Length of Visible Light 12h 12m
Length of Day
11h 21m
Waning Gibbous, 96% of the Moon is Illuminated
Feb 27
Waning Gibbous
Mar 4
Last Quarter
Mar 11
New
Mar 19
First Quarter
Mar 27
Full

Hourly Weather History & Observations

Time (EST) Temp. Windchill Dew Point Humidity Pressure Visibility Wind Dir Wind Speed Gust Speed Precip Events Conditions
12:15 AM 41.0 °F 37.1 °F 41.0 °F 100% 29.71 in 1.0 mi WSW 5.8 mph - N/A   Overcast
12:35 AM 41.0 °F 37.1 °F 41.0 °F 100% 29.71 in 0.5 mi SW 5.8 mph - N/A Fog Fog
12:55 AM 41.4 °F 36.8 °F 41.4 °F 100% 29.72 in 0.5 mi SW 6.9 mph - N/A Fog Fog
1:15 AM 41.9 °F 37.5 °F 41.9 °F 100% 29.72 in 5.0 mi SW 6.9 mph - N/A   Overcast
1:35 AM 41.7 °F 38.0 °F 41.7 °F 100% 29.70 in 7.0 mi SSW 5.8 mph - N/A   Overcast
1:55 AM 41.9 °F 38.2 °F 41.9 °F 100% 29.71 in 10.0 mi SW 5.8 mph - N/A   Overcast
2:15 AM 41.9 °F 36.3 °F 41.9 °F 100% 29.70 in 10.0 mi SW 9.2 mph 18.4 mph N/A   Overcast
2:35 AM 42.1 °F 37.7 °F 41.9 °F 99% 29.70 in 10.0 mi SW 6.9 mph - N/A   Overcast
2:55 AM 41.9 °F 38.2 °F 41.4 °F 98% 29.70 in 10.0 mi SW 5.8 mph - N/A   Overcast
3:15 AM 41.9 °F 37.5 °F 41.2 °F 97% 29.70 in 10.0 mi SW 6.9 mph - N/A   Overcast
3:35 AM 41.9 °F 36.9 °F 41.2 °F 97% 29.71 in 10.0 mi WSW 8.1 mph - N/A   Overcast
3:55 AM 41.9 °F 38.2 °F 40.5 °F 95% 29.71 in 10.0 mi WSW 5.8 mph - N/A   Overcast
4:15 AM 41.9 °F 37.5 °F 40.5 °F 95% 29.71 in 10.0 mi SW 6.9 mph - N/A   Overcast
4:35 AM 41.9 °F 38.2 °F 40.5 °F 95% 29.72 in 10.0 mi WSW 5.8 mph - N/A   Overcast
4:55 AM 41.9 °F 37.5 °F 40.1 °F 93% 29.72 in 10.0 mi WSW 6.9 mph - N/A   Overcast
5:15 AM 41.5 °F 37.8 °F 40.1 °F 95% 29.73 in 10.0 mi WSW 5.8 mph - N/A   Overcast
5:35 AM 41.5 °F 37.8 °F 40.1 °F 95% 29.74 in 10.0 mi WSW 5.8 mph - N/A   Overcast
5:55 AM 41.0 °F 37.1 °F 39.4 °F 94% 29.75 in 10.0 mi WSW 5.8 mph - N/A   Overcast
6:15 AM 41.0 °F 38.0 °F 39.4 °F 94% 29.76 in 10.0 mi WSW 4.6 mph - N/A   Overcast
6:35 AM 41.0 °F 39.0 °F 39.2 °F 93% 29.77 in 10.0 mi SW 3.5 mph - N/A   Overcast
6:55 AM 40.5 °F 38.4 °F 38.8 °F 94% 29.77 in 10.0 mi WSW 3.5 mph - N/A   Overcast
7:15 AM 40.6 °F 38.6 °F 38.8 °F 93% 29.78 in 10.0 mi WSW 3.5 mph - N/A   Overcast
7:35 AM 41.0 °F - 39.4 °F 94% 29.80 in 10.0 mi North - - N/A   Overcast
7:55 AM 40.6 °F 37.5 °F 39.2 °F 95% 29.82 in 10.0 mi SW 4.6 mph - N/A   Overcast
8:15 AM 40.6 °F - 39.2 °F 95% 29.82 in 10.0 mi North - - N/A   Overcast
8:35 AM 41.4 °F - 38.8 °F 91% 29.84 in 10.0 mi North - - N/A   Overcast
8:55 AM 43.5 °F 39.4 °F 40.3 °F 88% 29.82 in 10.0 mi WSW 6.9 mph - N/A   Scattered Clouds
9:15 AM 44.2 °F 41.8 °F 40.5 °F 87% 29.84 in 10.0 mi SW 4.6 mph - N/A   Scattered Clouds
9:35 AM 45.5 °F 44.2 °F 40.6 °F 83% 29.85 in 10.0 mi WSW 3.5 mph - N/A   Scattered Clouds
9:55 AM 46.6 °F - 41.0 °F 81% 29.85 in 10.0 mi WSW 5.8 mph - N/A   Clear
10:15 AM 48.2 °F - 39.2 °F 71% 29.85 in 10.0 mi SW 4.6 mph - N/A   Clear
10:35 AM 48.6 °F - 39.4 °F 71% 29.85 in 10.0 mi SW 6.9 mph - N/A   Clear
10:55 AM 49.1 °F - 38.1 °F 66% 29.84 in 10.0 mi Calm Calm - N/A   Scattered Clouds
11:15 AM 50.9 °F - 37.8 °F 61% 29.84 in 10.0 mi Calm Calm - N/A   Scattered Clouds
11:35 AM 51.1 °F - 36.5 °F 57% 29.84 in 10.0 mi West 8.1 mph - N/A   Scattered Clouds
11:55 AM 52.5 °F - 36.1 °F 54% 29.84 in 10.0 mi Calm Calm - N/A   Scattered Clouds
12:15 PM 53.1 °F - 37.2 °F 55% 29.82 in 10.0 mi WSW 6.9 mph - N/A   Scattered Clouds
12:35 PM 53.4 °F - 37.4 °F 55% 29.82 in 10.0 mi NW 5.8 mph - N/A   Clear
12:55 PM 54.0 °F - 37.4 °F 54% 29.82 in 10.0 mi West 11.5 mph 16.1 mph N/A   Scattered Clouds
1:15 PM 54.9 °F - 38.1 °F 53% 29.81 in 10.0 mi South 8.1 mph - N/A   Scattered Clouds
1:35 PM 56.1 °F - 39.4 °F 53% 29.80 in 10.0 mi SSW 12.7 mph 17.3 mph N/A   Scattered Clouds
1:55 PM 55.0 °F - 37.4 °F 51% 29.80 in 10.0 mi SSW 8.1 mph - N/A   Scattered Clouds
2:15 PM 56.5 °F - 38.8 °F 52% 29.80 in 10.0 mi SSW 12.7 mph - N/A   Mostly Cloudy
2:35 PM 56.3 °F - 38.3 °F 51% 29.79 in 10.0 mi SSW 9.2 mph 12.7 mph N/A   Scattered Clouds
2:55 PM 56.1 °F - 38.3 °F 51% 29.79 in 10.0 mi SW 10.4 mph 18.4 mph N/A   Scattered Clouds
3:15 PM 57.2 °F - 38.3 °F 49% 29.78 in 10.0 mi SW 6.9 mph - N/A   Scattered Clouds
3:35 PM 56.5 °F - 37.6 °F 49% 29.78 in 10.0 mi SW 12.7 mph 23.0 mph N/A   Scattered Clouds
3:55 PM 57.4 °F - 38.5 °F 49% 29.77 in 10.0 mi SSW 8.1 mph 16.1 mph N/A   Clear
4:15 PM 55.9 °F - 37.2 °F 49% 29.77 in 10.0 mi SW 6.9 mph - N/A   Clear
4:35 PM 57.0 °F - 38.3 °F 50% 29.77 in 10.0 mi SW 15.0 mph 18.4 mph N/A   Scattered Clouds
4:55 PM 55.8 °F - 37.9 °F 51% 29.77 in 10.0 mi SSW 12.7 mph 18.4 mph N/A   Scattered Clouds
5:15 PM 55.2 °F - 37.8 °F 52% 29.77 in 10.0 mi SSW 10.4 mph 16.1 mph N/A   Clear
5:35 PM 54.1 °F - 38.3 °F 55% 29.77 in 10.0 mi SSW 6.9 mph - N/A   Clear
5:55 PM 52.2 °F - 38.3 °F 59% 29.77 in 10.0 mi SSW 6.9 mph - N/A   Clear
6:15 PM 49.5 °F - 37.9 °F 65% 29.78 in 10.0 mi SSW 8.1 mph - N/A   Clear
6:35 PM 47.7 °F - 37.8 °F 69% 29.78 in 10.0 mi SSW 6.9 mph - N/A   Clear
6:55 PM 47.1 °F - 37.6 °F 69% 29.79 in 10.0 mi SSW 4.6 mph - N/A   Clear
7:15 PM 46.9 °F - 37.9 °F 71% 29.79 in 10.0 mi SW 4.6 mph - N/A   Clear
7:35 PM 46.0 °F 44.8 °F 37.9 °F 73% 29.78 in 10.0 mi SW 3.5 mph - N/A   Clear
7:55 PM 45.7 °F - 37.9 °F 74% 29.78 in 10.0 mi Calm Calm - N/A   Clear
8:15 PM 41.4 °F - 37.9 °F 88% 29.78 in 10.0 mi Calm Calm - N/A   Clear
8:35 PM 41.0 °F - 36.9 °F 85% 29.77 in 10.0 mi Calm Calm - N/A   Clear
8:55 PM 39.2 °F - 37.4 °F 93% 29.77 in 10.0 mi Calm Calm - N/A   Clear
9:15 PM 38.5 °F - 36.7 °F 93% 29.78 in 10.0 mi Calm Calm - N/A   Clear
9:35 PM 37.4 °F - 37.4 °F 100% 29.77 in 10.0 mi Calm Calm - N/A   Clear
9:55 PM 36.5 °F - 35.8 °F 97% 29.77 in 10.0 mi Calm Calm - N/A   Clear
10:15 PM 36.5 °F - 35.6 °F 97% 29.77 in 10.0 mi Calm Calm - N/A   Clear
10:35 PM 39.0 °F - 37.0 °F 93% 29.76 in 10.0 mi Calm Calm - N/A   Clear
10:55 PM 36.1 °F - 34.9 °F 95% 29.76 in 10.0 mi Calm Calm - N/A   Clear
11:15 PM 35.8 °F - 35.1 °F 97% 29.76 in 10.0 mi Calm Calm - N/A   Clear
11:35 PM 37.4 °F - 34.7 °F 90% 29.76 in 10.0 mi Calm Calm - N/A   Clear
11:55 PM 37.8 °F - 34.3 °F 87% 29.76 in 10.0 mi Calm Calm - N/A   Clear